Regional Weather Roundup
Issued by NWS Binghamton, NY

Home | Current Version | Previous Version | Text Only | Print | Product List | Glossary On
Versions: 1 2 3 4 5 6 7 8 9 10 11 12 13 14 15 16 17 18 19 20 21 22 23 24 25 26 27 28 29 30 31 32 33 34 35 36 37 38 39 40 41 42 43 44 45 46 47 48 49 50
000
ASUS41 KBGM 280110
RWRBGM
RWRBGM
BINGHAMTON REGIONAL WEATHER ROUNDUP
NATIONAL WEATHER SERVICE BINGHAMTON NY
800 PM EST SAT DEC 27 2014

Note: "fair" indicates few or no clouds below 12,000 feet with no
significant weather and/or obstructions to visibility.

* = Station(s) that does not report precipitation, such as rain,
snow, etc, also no thunder or fog.

!NYZ009-015>018-022>025-036-037-044>046-055>057-062-280200
...CENTRAL NEW YORK...

CITY           SKY/WX    TMP DP  RH WIND       PRES   REMARKS
BINGHAMTON     CLOUDY    45  34  65 S10       30.04S
CORTLAND       CLOUDY    48  37  66 S9        30.03S
DANSVILLE      PTCLDY    50  37  61 SE8       29.97F
ELMIRA         MOCLDY    35  33  92 CALM      30.02F
ITHACA         MOCLDY    48  36  63 S13       30.03S
HAMILTON       CLOUDY    46  36  66 S10G16    30.02F
MONTICELLO     MOCLDY    37  34  87 SE3       30.10F
NORWICH        CLOUDY    45  34  65 S7        30.05R
ONEONTA        PTCLDY    45  34  65 SW3       30.03F
PENN YAN       MOCLDY    49  37  63 S12G22    29.98F
ROME           CLOUDY    48  37  65 E5        30.01F
SIDNEY         CLOUDY    50  39  66 W7        30.06S
SYRACUSE       CLOUDY    52  37  56 S10G18    29.97F
$$

!PAZ038>040-043-044-047-048-072-280200
...NORTHEAST PENNSYLVANIA...

CITY           SKY/WX    TMP DP  RH WIND       PRES   REMARKS
HAZLETON       PTCLDY    46  34  61 S3        30.13F
SCRANTON       CLOUDY    47  35  63 W5        30.09F
TOWANDA*       CLEAR     43  34  70 CALM      30.06F
$$
&&
KEY
WCI = WIND CHILL INDEX
VSB = VISIBILITY
HX  = HEAT INDEX
$$


USA.gov is the U.S. government's official web portal to all federal, state and local government web resources and services.